Location: San Antonio
(29.4240°N, 98.4930°W)
Time: 02:53:19
(UTC-05:00)

Tiros 1 despin weight - Visible Passes

Search period start: 21 June 2025 00:00
Search period end: 01 July 2025 00:00
Orbit: 563 x 601 km, 48.2° (Epoch: 20 June)

Date Brightness Start Highest point End Pass type
(mag) Time Alt. Az. Time Alt. Az. Time Alt. Az.
21 Jun ? 21:30:58 10° NW 21:35:06 49° NE 21:38:10 17° ESE visible
21 Jun ? 23:12:33 10° W 23:14:28 17° WSW 23:14:28 17° WSW visible
22 Jun ? 21:35:33 10° NW 21:39:49 88° NE 21:42:43 20° SE visible
23 Jun ? 21:40:21 10° WNW 21:44:27 49° SW 21:47:21 18° SSE visible
24 Jun ? 21:45:27 10° WNW 21:49:02 27° SW 21:52:02 13° S visible
25 Jun ? 21:51:12 10° W 21:53:32 14° SW 21:55:53 10° SSW visible
